TJS-7

Last updated on Tue Sep 22 2026 00:03:15 GMT+0000 (Coordinated Universal Time)

1 49115U 21077A 26264.61196457 -.00000128 00000+0 00000+0 0 9996 2 49115 0.1147 260.2713 0001701 105.1861 115.8846 1.00273694 10519
UTC large
Height (km)
Speed (km/s)
/
Latitude / Longitude
Inclination (degrees)
Orbital Period (minutes)
Azimuth
Elevation
Range (km)
Doppler Factor

Next 0 passes for location: London (51.5072 / 0.1276)

No passes found over London.
TJS-7